SCP
2 2 2 1 2 2 3 3 4 4 4 5 5 4 3 3 2 2 2 3 5 5 5 5 5 5 5 4 4 3 3 2 2 3 3 3 3 3 3 2 2 2 2
2 2 2 1 1 2 2 3 3 3 4 4 4 3 3 3 2 2 2 3 4 5 5 5 5 5 5 5 4 4 3 3 3 3 3 3 3 3 3 2 2 2 2
2 2 2 1 1 1 1 2 2 2 3 3 3 3 2 2 2 2 2 3 3 3 3 4 4 5 5 5 5 4 4 3 3 3 3 3 3 3 2 2 2 2 1
2 2 2 1 1 1 1 1 1 2 2 2 3 2 2 2 2 2 2 2 2 2 2 3 4 5 5 5 5 4 4 4 3 3 3 3 3 3 2 2 2 2 1
1 1 1 1 1 1 1 1 1 1 2 2 2 3 3 2 2 1 1 2 2 2 2 2 3 4 5 5 4 4 4 4 3 3 3 3 3 3 2 2 2 2 1
1 1 1 1 1 1 0 0 0 1 1 2 2 3 3 2 2 1 1 1 2 2 2 2 2 3 4 4 4 4 4 4 3 3 3 4 4 3 2 2 2 2 1
1 1 0 1 0 0 0 0 0 0 1 1 1 2 2 2 1 1 1 1 1 1 1 1 2 2 3 3 4 4 4 4 4 3 3 3 3 3 2 1 1 1 1
0 0 0 0 0 0 0 0 0 0 0 0 1 1 1 1 1 1 1 1 1 1 1 1 1 1 2 2 3 3 3 4 4 4 3 3 3 2 1 1 1 1 1
0 0 0 0 0 0 0 0 0 0 0 0 0 0 0 0 0 0 1 1 1 1 1 1 1 1 2 2 2 2 3 3 4 4 4 3 3 2 1 1 1 1 1
0 0 0 0 0 0 0 0 0 0 0 0 0 0 0 0 0 0 0 1 1 1 1 1 1 1 1 2 2 2 2 3 3 4 4 4 3 2 2 1 1 1 1
0 0 0 0 0 0 0 0 0 0 0 0 0 0 0 0 0 0 0 0 0 1 0 1 1 1 1 2 1 1 2 2 3 3 4 4 3 2 2 1 1 1 1
0 0 0 0 0 0 0 0 0 0 0 0 0 0 0 0 0 0 0 0 0 0 0 0 1 1 1 1 1 2 2 2 2 2 3 3 3 2 2 2 1 1 1
0 0 0 0 0 0 0 0 0 0 0 0 0 0 0 0 0 0 0 0 0 0 0 0 1 1 1 1 1 2 2 2 1 1 2 2 2 1 1 1 1 1 1
0 0 0 0 0 0 0 0 0 0 0 0 0 0 0 0 0 0 0 0 0 0 0 0 0 1 1 1 1 2 2 2 1 1 1 1 1 1 1 1 1 1 1
0 0 0 0 0 0 0 0 0 0 0 0 0 0 0 0 0 0 0 0 0 0 0 0 0 1 1 1 1 1 1 1 1 1 0 0 0 0 0 0 0 0 1
0 0 0 0 0 0 0 0 0 0 0 0 0 0 0 0 0 0 0 0 0 0 0 0 1 1 1 1 1 1 1 0 0 0 0 0 0 0 0 0 0 0 0
0 0 0 0 0 0 0 0 0 0 0 0 0 0 0 0 0 0 0 0 0 0 0 0 1 1 1 1 1 0 0 0 0 0 0 0 0 0 0 0 0 0 0
0 0 0 0 0 0 0 0 0 0 0 0 0 0 0 0 0 0 0 0 0 0 0 1 1 1 1 1 1 0 0 0 0 0 0 0 0 0 0 0 0 0 0
0 0 0 0 0 0 0 0 0 0 0 0 0 0 0 0 0 0 0 0 0 0 0 1 1 1 1 1 1 1 0 0 0 0 0 0 0 0 0 0 0 0 0
0 0 0 0 0 0 0 0 0 0 0 0 0 0 0 0 0 0 0 0 0 0 0 1 1 1 1 1 1 1 0 0 0 0 0 0 0 0 0 0 0 0 0
0 0 0 0 0 0 0 0 0 0 0 0 0 0 0 0 0 0 0 0 0 0 0 0 1 1 1 1 1 1 0 0 0 0 0 0 0 0 0 0 0 0 0
0 0 0 0 0 0 0 0 0 0 0 0 0 0 0 0 0 0 0 0 0 0 0 0 1 1 1 1 1 1 0 0 0 0 0 0 0 0 0 0 0 0 0
0 0 0 0 0 0 0 0 0 0 0 0 0 0 0 0 0 0 0 0 0 0 0 0 0 1 1 1 1 1 0 0 0 0 0 0 0 0 0 0 0 0 0
0 0 0 0 0 0 0 0 0 0 0 0 0 0 0 0 0 0 0 0 0 0 0 0 0 0 1 1 1 1 0 0 0 0 0 0 0 0 0 0 0 0 0
0 0 0 0 0 0 0 0 0 0 0 0 0 0 0 0 0 0 0 0 0 0 0 0 0 0 0 0 1 1 0 0 0 0 0 0 0 0 0 0 0 0 0
0 0 0 0 0 0 0 0 0 0 0 0 0 0 0 0 0 0 0 0 0 0 0 0 0 0 0 0 1 1 1 0 0 0 0 0 0 0 0 0 0 0 0
Wind_Speed
2 2 2 2 3 3 4 5 6 8 9 9 10 10 10 10 9 8 6 13 14 19 24 24 24 24 23 22 22 21 20 20 18 17 17 16 16 15 15 15 14 14 13
1 2 2 3 3 3 4 4 6 7 7 8 10 11 10 9 9 9 7 9 14 16 20 23 23 22 22 22 22 21 21 20 19 18 18 17 17 16 16 16 15 15 14
1 1 2 2 3 3 4 4 5 5 7 7 9 11 9 9 9 9 8 6 7 14 19 21 22 22 22 22 23 22 21 20 20 19 19 18 17 17 17 16 16 15 15
1 1 2 3 3 3 3 3 4 5 6 7 7 8 8 8 9 9 7 7 6 7 13 20 21 22 23 23 23 22 21 21 20 20 20 19 19 18 17 17 17 16 15
1 1 2 3 3 3 3 3 3 4 5 5 6 7 7 8 8 9 8 9 8 8 8 14 20 22 23 23 22 22 22 21 21 21 21 21 20 19 19 18 18 17 17
2 1 2 4 3 3 3 3 4 4 4 4 6 6 5 6 6 7 9 8 8 10 11 11 10 14 21 21 20 20 22 22 22 22 22 22 21 20 19 19 18 18 18
4 3 3 3 3 3 4 4 3 4 3 3 2 3 4 6 7 7 6 6 9 10 10 10 8 8 9 18 19 20 21 22 22 22 22 22 22 20 20 19 19 19 19
6 5 4 4 3 3 4 4 3 2 2 2 2 1 2 3 4 7 6 8 9 8 9 12 10 10 8 7 11 20 20 21 22 22 22 22 21 20 20 20 19 19 19
7 6 6 4 3 3 3 4 3 3 3 2 1 1 1 2 2 2 6 8 8 7 8 8 11 11 11 8 8 14 19 19 20 21 21 21 20 19 19 19 20 19 19
7 7 6 4 3 2 2 3 2 2 3 3 2 2 3 2 2 2 2 4 7 8 8 9 10 10 10 8 10 13 17 18 19 20 20 20 20 19 19 20 21 21 20
6 6 6 5 4 2 2 3 2 2 2 3 3 2 3 3 3 2 2 2 2 4 6 8 8 8 9 8 8 11 16 17 18 19 18 18 18 19 20 20 21 21 21
5 6 6 5 4 4 4 4 3 3 3 3 3 3 3 2 2 1 2 2 2 3 4 5 7 8 8 8 11 14 15 16 17 17 17 17 17 18 19 20 21 21 21
3 5 5 4 4 4 5 4 4 4 3 3 3 3 3 3 2 2 2 2 2 2 2 2 4 6 7 7 8 14 14 15 15 15 15 15 15 16 17 18 18 19 19
4 4 4 4 5 5 5 4 4 4 4 4 4 4 3 3 2 2 2 1 1 2 1 2 1 4 4 5 7 11 8 13 13 13 13 13 13 14 14 15 15 15 15
4 4 5 5 5 5 5 4 3 5 4 4 4 4 3 3 2 2 2 2 2 1 2 3 1 2 3 3 7 5 5 9 10 10 10 10 11 12 12 13 14 14 14
5 5 6 6 6 5 5 4 4 5 5 5 4 5 4 3 2 2 2 2 2 3 3 3 2 2 3 5 6 6 5 9 8 8 8 8 9 10 11 11 12 13 13
6 6 6 6 6 6 6 5 5 5 5 5 5 5 6 5 3 3 2 2 2 2 3 3 1 1 3 6 6 5 5 5 4 6 6 6 8 9 9 10 11 11 12
7 7 6 6 7 7 6 6 7 6 5 6 6 6 6 5 5 4 3 3 3 3 3 4 2 2 2 7 8 7 5 5 4 6 6 6 6 7 8 9 9 10 10
7 7 6 7 7 7 7 7 7 7 7 7 6 6 6 5 6 5 5 4 3 3 3 3 3 2 2 5 7 6 6 4 4 6 7 7 6 6 7 7 8 8 9
7 7 7 7 7 8 8 8 8 8 8 7 7 6 6 6 7 7 5 5 4 4 4 3 3 2 3 4 6 7 5 3 3 4 6 6 9 10 8 8 9 9 10
7 7 7 7 7 7 7 8 8 9 8 7 7 6 7 10 11 9 6 6 6 5 4 4 4 3 4 7 7 5 6 5 3 2 4 3 4 5 5 7 9 11 11
7 7 7 8 8 8 10 13 9 7 7 7 7 7 8 10 12 13 14 12 10 8 7 5 4 5 6 6 6 8 8 6 4 3 3 3 3 5 4 3 7 11 11
7 8 8 8 9 10 14 15 16 9 8 8 8 7 9 10 10 7 10 13 13 14 12 7 7 6 7 8 9 10 9 7 4 6 5 3 3 3 3 4 8 10 12
7 8 8 9 9 11 14 15 16 11 8 9 9 9 9 9 9 7 6 7 7 8 10 7 6 6 6 6 9 9 9 7 5 4 4 4 3 3 3 4 7 10 11
8 8 8 9 9 11 14 15 14 7 7 9 10 10 11 10 13 13 8 7 7 6 8 9 8 7 7 9 9 8 10 9 7 4 2 5 4 3 3 3 5 9 10
8 9 9 8 9 10 12 14 13 5 7 8 7 8 13 13 13 14 9 8 8 7 6 6 5 6 6 8 12 11 11 11 8 5 4 5 5 5 4 2 3 3 6
Wind_Direction
229 243 256 255 252 251 246 240 235 233 229 228 226 226 227 228 231 229 236 239 228 216 211 206 201 200 198 195 196 196 197 196 193 191 190 189 187 187 187 185 183 181 180
206 244 264 271 269 261 253 246 242 236 232 231 232 230 231 230 233 231 229 240 236 223 216 208 204 205 205 202 201 200 200 200 198 196 195 194 193 192 192 191 189 187 185
203 246 270 278 276 275 269 259 254 246 241 234 233 231 230 231 233 232 231 229 231 227 219 210 204 205 209 209 206 204 202 201 201 200 199 199 198 196 195 195 194 192 190
235 254 273 276 276 284 280 269 258 252 248 234 231 234 233 228 230 231 230 228 222 222 219 213 210 210 209 211 210 208 205 204 203 202 201 201 201 200 198 198 197 196 194
264 257 270 274 276 277 276 279 274 256 254 244 236 233 230 228 227 231 230 230 223 220 218 218 216 216 214 215 214 212 209 206 206 205 205 205 204 202 201 201 200 199 198
297 281 270 273 274 271 274 271 270 264 255 252 254 247 233 225 219 224 226 228 223 222 220 218 216 221 219 219 218 218 215 211 208 208 208 209 208 204 202 202 202 202 201
318 298 284 281 271 258 260 265 266 269 263 247 252 266 256 235 227 225 221 223 224 222 218 216 211 211 218 220 221 220 219 216 212 211 210 211 210 207 203 203 203 203 203
321 312 288 274 267 262 270 268 259 265 273 238 220 252 284 277 242 227 215 222 225 217 216 216 213 213 214 211 217 218 219 218 216 214 212 212 211 207 205 205 205 204 205
323 315 298 277 264 246 258 264 253 243 257 264 228 213 232 260 281 244 219 219 216 210 212 212 213 214 213 211 211 217 219 217 218 217 215 213 211 207 206 206 207 206 206
331 331 322 308 285 258 263 275 264 245 238 256 261 240 234 243 266 304 294 233 218 214 211 212 213 212 209 208 210 210 214 214 217 219 217 214 211 208 207 208 210 209 208
334 340 339 340 329 306 289 289 292 272 244 234 233 239 247 250 234 233 276 287 256 228 214 208 206 205 205 206 206 210 211 212 214 216 216 214 211 209 209 210 213 213 211
323 335 341 342 336 327 311 301 291 284 272 257 244 229 221 223 228 221 244 248 250 247 221 205 204 202 200 202 209 207 206 208 209 210 210 210 209 209 210 212 216 217 215
309 314 333 333 328 317 310 305 298 288 281 278 264 251 237 224 217 214 229 251 263 276 243 212 206 197 194 192 203 202 204 204 205 205 205 205 205 206 207 209 214 216 216
274 288 308 315 317 316 315 310 297 287 281 277 279 274 264 252 226 210 210 216 260 291 287 249 208 191 180 178 188 183 193 197 197 196 198 200 201 203 203 204 207 210 211
280 298 305 309 310 311 309 305 292 289 285 273 272 272 266 260 246 233 219 204 187 215 258 261 225 184 162 148 158 154 150 169 174 180 188 195 198 201 201 202 204 206 208
279 291 294 296 297 298 299 302 292 287 287 279 268 267 266 261 254 239 230 223 201 197 224 246 235 171 151 137 128 124 124 135 144 159 175 189 196 200 202 201 203 204 207
268 271 275 281 285 286 286 287 285 285 279 281 280 265 261 258 257 246 232 224 217 202 225 255 254 146 128 138 121 111 109 107 115 134 154 178 192 197 199 199 200 202 204
260 258 261 266 271 277 276 273 275 283 272 270 271 266 261 257 251 247 234 228 228 221 213 233 247 169 146 151 137 128 118 111 106 116 131 150 167 182 188 192 194 193 192
262 260 257 257 260 263 265 266 263 264 260 255 253 253 255 249 247 242 233 225 220 228 215 215 228 197 139 152 136 120 113 107 104 107 104 110 126 138 151 165 170 171 172
265 261 256 253 254 255 256 258 259 261 261 259 251 244 245 240 239 235 232 225 213 216 214 210 217 196 157 157 147 139 133 118 111 101 93 92 100 100 112 129 138 143 145
274 264 260 259 256 256 257 253 248 255 257 260 259 251 249 251 248 235 226 218 208 208 208 208 211 190 171 170 164 150 144 134 101 111 108 88 86 80 78 99 119 129 132
274 270 264 261 261 267 267 263 254 245 244 248 256 257 258 262 259 248 236 224 209 202 205 205 210 202 189 178 161 154 150 152 153 153 121 92 78 77 55 65 111 121 125
276 273 267 262 261 261 261 262 261 249 236 238 240 246 260 258 248 239 236 234 225 217 206 198 207 209 194 181 170 166 167 160 150 151 126 97 70 69 48 67 105 116 121
277 274 272 266 263 267 263 258 257 253 239 236 233 232 237 247 248 234 228 230 225 222 215 208 207 209 203 186 179 171 157 131 108 128 118 112 93 71 51 54 85 110 117
281 275 271 268 265 270 267 263 258 248 241 239 236 234 231 234 236 227 217 220 225 231 223 210 206 200 190 180 168 154 153 154 151 150 117 116 119 97 62 46 70 98 109
280 280 277 270 265 268 272 270 263 244 243 246 242 237 233 228 226 221 211 205 214 216 199 194 198 194 189 185 177 175 171 169 157 149 150 125 132 130 108 63 55 82 97